Tracking 18785 objects as of 25-July-2017
HD Live streaming from Space Station
objects crossing your sky now
MAYAK may become the brightest orbital object in the night sky!
Where is MAYAK now?
How to spot MAYAK

COSMOS 1015

Track COSMOS 1015 now!
10-day predictions
COSMOS 1015 is classified as:


NORAD ID: 10932
Int'l Code: 1978-056C
Perigee: 1,479.9 km
Apogee: 1,524.1 km
Inclination: 74.0 °
Period: 115.9 minutes
Semi major axis: 7873 km
RCS: 0.7013 m2 (medium)
Launch date: June 7, 1978
Source: Commonwealth of Independent States (former USSR) (CIS)
Launch site: PLESETSK MISSILE AND SPACE COMPLEX (PKMTR)
Your satellite tracking list
Your tracking list is empty





NASA's NSSDC Master Catalog

Two Line Element Set (TLE):
1 10932U 78056C   17206.19137226 -.00000024 +00000-0 -63072-4 0  9998
2 10932 074.0237 216.3571 0028033 272.5481 156.6067 12.42771513775463
Source of the keplerian elements: AFSPC